When you browse on this site, cookies collect data to enhance your experience and personalize the content and advertising you see.
Visit our Privacy Policy to learn more. By continuing to use the site, you agree to this use of cookies and data.
  • In Österreich
  • Länderverzeichnis
  • Für 7 Tage
  • Wassertemperatur
  • Satellitenkarten
  • Wetterkarte
  • News
  • Widgets
  • user-avatar
    Anmelden

    Stündliche Wetter Shtip

    Heute, 11 Dezember, Dienstag

    Zeit Temperatur Niederschläge Wind Luftdruck Luftfeuchtigkeit
    00:00 -1°C° 0 mm 2 m/S 725 mmHg 85%
    01:00 -1°C° 0 mm 2 m/S 725 mmHg 86%
    02:00 -1°C° 0 mm 2 m/S 725 mmHg 85%
    03:00 -1°C° 0 mm 2 m/S 725 mmHg 85%
    04:00 -2°C° 0 mm 2 m/S 726 mmHg 85%
    05:00 -2°C° 0 mm 2 m/S 726 mmHg 85%
    06:00 -2°C° 0 mm 2 m/S 726 mmHg 84%
    07:00 -2°C° 0 mm 2 m/S 726 mmHg 84%
    08:00 -1°C° 0 mm 2 m/S 727 mmHg 77%
    09:00 +2°C° 0 mm 2 m/S 727 mmHg 71%
    10:00 +2°C° 0 mm 3 m/S 727 mmHg 64%
    11:00 +2°C° 0 mm 3 m/S 727 mmHg 61%
    12:00 +3°C° 0 mm 3 m/S 727 mmHg 59%
    13:00 +3°C° 0 mm 3 m/S 727 mmHg 57%
    14:00 +2°C° 0 mm 3 m/S 727 mmHg 61%
    15:00 +2°C° 0 mm 2 m/S 727 mmHg 65%
    16:00 +1°C° 0 mm 2 m/S 727 mmHg 69%
    17:00 -1°C° 0 mm 2 m/S 727 mmHg 71%
    18:00 -1°C° 0 mm 2 m/S 728 mmHg 73%
    19:00 -2°C° 0 mm 2 m/S 728 mmHg 75%
    20:00 0°C° 0 mm 1 m/S 728 mmHg 76%
    21:00 0°C° 0 mm 1 m/S 729 mmHg 76%
    22:00 -1°C° 0 mm 1 m/S 729 mmHg 77%
    23:00 -1°C° 0 mm 1 m/S 729 mmHg 77%

    Morgen, 12 Dezember, Mittwoch

    Zeit Temperatur Niederschläge Wind Luftdruck Luftfeuchtigkeit
    00:00 -1°C° 0 mm 1 m/S 729 mmHg 78%
    01:00 -1°C° 0 mm 1 m/S 729 mmHg 78%
    02:00 -1°C° 0 mm 1 m/S 729 mmHg 78%
    03:00 -1°C° 0 mm 1 m/S 729 mmHg 78%
    04:00 -1°C° 0 mm 1 m/S 729 mmHg 79%
    05:00 -1°C° 0 mm 1 m/S 729 mmHg 79%
    06:00 -1°C° 0 mm 1 m/S 730 mmHg 79%
    07:00 -2°C° 0 mm 1 m/S 730 mmHg 79%
    08:00 0°C° 0 mm 1 m/S 730 mmHg 73%
    09:00 +2°C° 0 mm 1 m/S 730 mmHg 67%
    10:00 +3°C° 0 mm 1 m/S 731 mmHg 61%
    11:00 +4°C° 0 mm 1 m/S 730 mmHg 58%
    12:00 +4°C° 0 mm 1 m/S 730 mmHg 56%
    13:00 +5°C° 0 mm 1 m/S 730 mmHg 53%
    14:00 +4°C° 0 mm 1 m/S 730 mmHg 58%
    15:00 +3°C° 0 mm 1 m/S 730 mmHg 62%
    16:00 +1°C° 0 mm 1 m/S 730 mmHg 66%
    17:00 +1°C° 0 mm 1 m/S 730 mmHg 67%
    18:00 0°C° 0 mm 1 m/S 730 mmHg 68%
    19:00 0°C° 0 mm 1 m/S 731 mmHg 69%
    20:00 0°C° 0 mm 1 m/S 731 mmHg 69%
    21:00 0°C° 0 mm 1 m/S 731 mmHg 68%
    22:00 -1°C° 0 mm 1 m/S 731 mmHg 68%
    23:00 -1°C° 0 mm 1 m/S 731 mmHg 67%

    übermorgen, 13 Dezember, Donnerstag

    Zeit Temperatur Niederschläge Wind Luftdruck Luftfeuchtigkeit
    00:00 -1°C° 0 mm 1 m/S 731 mmHg 66%
    01:00 -1°C° 0 mm 1 m/S 731 mmHg 65%
    02:00 -1°C° 0 mm 1 m/S 731 mmHg 64%
    03:00 -1°C° 0 mm 1 m/S 730 mmHg 63%
    04:00 0°C° 0 mm 1 m/S 730 mmHg 62%
    05:00 0°C° 0 mm 1 m/S 730 mmHg 61%
    06:00 0°C° 0 mm 1 m/S 730 mmHg 60%
    07:00 0°C° 0 mm 1 m/S 730 mmHg 59%
    08:00 +1°C° 0 mm 1 m/S 730 mmHg 57%
    09:00 +2°C° 0 mm 1 m/S 730 mmHg 54%
    10:00 +3°C° 0 mm 1 m/S 730 mmHg 52%
    11:00 +4°C° 0.1 mm 1 m/S 729 mmHg 54%
    12:00 +4°C° 0.1 mm 1 m/S 729 mmHg 56%
    13:00 +3°C° 0.1 mm 2 m/S 728 mmHg 58%
    14:00 +2°C° 0.5 mm 2 m/S 727 mmHg 67%
    15:00 +2°C° 0.5 mm 1 m/S 727 mmHg 76%
    16:00 +2°C° 0.5 mm 1 m/S 727 mmHg 85%
    17:00 +2°C° 0.6 mm 1 m/S 727 mmHg 87%
    18:00 +2°C° 0.6 mm 1 m/S 727 mmHg 88%
    19:00 +1°C° 0.6 mm 1 m/S 727 mmHg 90%
    20:00 +1°C° 0.2 mm 1 m/S 727 mmHg 89%
    21:00 +1°C° 0.2 mm 1 m/S 727 mmHg 89%
    22:00 +1°C° 0.2 mm 1 m/S 726 mmHg 89%
    23:00 +1°C° 0 mm 1 m/S 727 mmHg 89%

    14 Dezember, Freitag

    Zeit Temperatur Niederschläge Wind Luftdruck Luftfeuchtigkeit
    00:00 +1°C° 0 mm 1 m/S 727 mmHg 89%
    01:00 -2°C° 0 mm 2 m/S 727 mmHg 89%
    02:00 -2°C° 0 mm 2 m/S 727 mmHg 88%
    03:00 -2°C° 0 mm 2 m/S 727 mmHg 88%
    04:00 -2°C° 0 mm 2 m/S 728 mmHg 88%
    05:00 -3°C° 0 mm 2 m/S 728 mmHg 87%
    06:00 -3°C° 0 mm 2 m/S 729 mmHg 87%
    07:00 -3°C° 0 mm 2 m/S 729 mmHg 86%
    08:00 -1°C° 0 mm 2 m/S 729 mmHg 83%
    09:00 +1°C° 0 mm 2 m/S 730 mmHg 79%
    10:00 +3°C° 0 mm 1 m/S 730 mmHg 75%
    11:00 +4°C° 0 mm 1 m/S 730 mmHg 75%
    12:00 +5°C° 0 mm 1 m/S 730 mmHg 74%
    13:00 +5°C° 0 mm 1 m/S 729 mmHg 73%
    14:00 +4°C° 0 mm 1 m/S 730 mmHg 76%
    15:00 +3°C° 0 mm 1 m/S 730 mmHg 78%
    16:00 +2°C° 0 mm 1 m/S 730 mmHg 81%
    17:00 +2°C° 0 mm 1 m/S 730 mmHg 81%
    18:00 +2°C° 0 mm 1 m/S 731 mmHg 81%
    19:00 +2°C° 0 mm 1 m/S 731 mmHg 81%
    20:00 +2°C° 0.1 mm 1 m/S 731 mmHg 82%
    21:00 +2°C° 0.1 mm 1 m/S 731 mmHg 83%
    22:00 +2°C° 0.1 mm 1 m/S 731 mmHg 83%
    23:00 +3°C° 0.2 mm 1 m/S 731 mmHg 84%

    15 Dezember, Samstag

    Zeit Temperatur Niederschläge Wind Luftdruck Luftfeuchtigkeit
    00:00 +3°C° 0.2 mm 1 m/S 731 mmHg 85%
    01:00 +3°C° 0.2 mm 1 m/S 731 mmHg 86%
    02:00 +3°C° 0.4 mm 1 m/S 731 mmHg 87%
    03:00 +3°C° 0.4 mm 1 m/S 731 mmHg 88%
    04:00 +3°C° 0.4 mm 1 m/S 731 mmHg 89%
    05:00 +3°C° 0.3 mm 1 m/S 731 mmHg 89%
    06:00 +3°C° 0.3 mm 1 m/S 731 mmHg 89%
    07:00 +4°C° 0.3 mm 1 m/S 731 mmHg 89%
    08:00 +4°C° 0.3 mm 1 m/S 731 mmHg 89%
    09:00 +5°C° 0.3 mm 1 m/S 731 mmHg 89%
    10:00 +5°C° 0.3 mm 1 m/S 731 mmHg 89%
    11:00 +5°C° 0.3 mm 1 m/S 731 mmHg 89%
    12:00 +6°C° 0.3 mm 1 m/S 731 mmHg 89%
    13:00 +6°C° 0.3 mm 1 m/S 730 mmHg 88%
    14:00 +6°C° 0.2 mm 1 m/S 730 mmHg 89%
    15:00 +5°C° 0.2 mm 1 m/S 730 mmHg 89%
    16:00 +5°C° 0.2 mm 1 m/S 730 mmHg 90%
    17:00 +5°C° 0.2 mm 1 m/S 730 mmHg 90%
    18:00 +5°C° 0.2 mm 1 m/S 731 mmHg 90%
    19:00 +3°C° 0.2 mm 2 m/S 731 mmHg 90%
    20:00 +3°C° 0.2 mm 2 m/S 731 mmHg 90%
    21:00 +3°C° 0.2 mm 2 m/S 731 mmHg 90%
    22:00 +3°C° 0.2 mm 2 m/S 731 mmHg 89%
    23:00 +2°C° 0.2 mm 2 m/S 731 mmHg 89%

    16 Dezember, Sonntag

    Zeit Temperatur Niederschläge Wind Luftdruck Luftfeuchtigkeit
    00:00 +2°C° 0.2 mm 2 m/S 731 mmHg 89%
    01:00 +2°C° 0.2 mm 2 m/S 731 mmHg 89%
    02:00 +1°C° 0.1 mm 3 m/S 731 mmHg 89%
    03:00 0°C° 0.1 mm 3 m/S 731 mmHg 89%
    04:00 0°C° 0.1 mm 3 m/S 731 mmHg 89%
    05:00 0°C° 0.1 mm 3 m/S 731 mmHg 89%
    06:00 -1°C° 0.1 mm 3 m/S 731 mmHg 88%
    07:00 -1°C° 0.1 mm 3 m/S 731 mmHg 88%
    08:00 0°C° 0.1 mm 3 m/S 732 mmHg 85%
    09:00 0°C° 0.1 mm 3 m/S 732 mmHg 83%
    10:00 +1°C° 0.1 mm 3 m/S 732 mmHg 80%
    11:00 +1°C° 0.1 mm 3 m/S 732 mmHg 80%
    12:00 +1°C° 0.1 mm 3 m/S 732 mmHg 79%
    13:00 +1°C° 0.1 mm 4 m/S 732 mmHg 78%
    14:00 +1°C° 0 mm 3 m/S 732 mmHg 80%
    15:00 0°C° 0 mm 3 m/S 732 mmHg 81%
    16:00 0°C° 0 mm 3 m/S 732 mmHg 83%
    17:00 -1°C° 0 mm 3 m/S 733 mmHg 84%
    18:00 -2°C° 0 mm 2 m/S 733 mmHg 84%
    19:00 -3°C° 0 mm 2 m/S 734 mmHg 85%
    20:00 -3°C° 0 mm 2 m/S 734 mmHg 84%
    21:00 -3°C° 0 mm 2 m/S 734 mmHg 84%
    22:00 -3°C° 0 mm 2 m/S 734 mmHg 83%
    23:00 -3°C° 0 mm 2 m/S 734 mmHg 83%
    Mehr zeigen